Regina International Airport
CYQR : rendu visible

Aérodrome :











RETROUVEZ-NOUS SUR...

 
LOGIN :

S'inscrire | Disclaimer

   EN    FR    IT 

 









Légende :    VFR   VFR Marginal   IFR   IFR Intensif   IFR Très Intensif
Visi : 
Plafond : 
>= 8 km
>= 3000ft
5 à 8 km
1000 à 3000 ft
1500m à 5 km
500 à 1000 ft
800 à 1500m
200 à 500 ft
< 800m
< 200 ft
Symboles :   Orages  Brouillard  Fortes neiges  Fortes précipitations  Vent > 20 kt






- Altitude de l'aérodrome : 1894 ft
- Code IATA : YQR


CYQR - Regina International

DERNIER METAR :
  • 250600Z 17003KT 15SM SKC 09/01 A2998 RMK SLP167

METARs EXPIRÉS :
  • 250500Z 21004KT 15SM FEW260 10/M00 A2998 RMK CI2 SLP168
  • 250400Z 19002KT 15SM SCT260 12/01 A2999 RMK CI3 SLP169 DENSITY ALT 2000FT

TAF TAF CYQR
Valide du 25 à 06h jusqu'au 26 à 06h UTC


250538Z 2506/2606 VRB03KT P6SM SCT250
BECMG 2507/2509 13005KT
BECMG 2517/2519 26010KT
FM251900 27007KT P6SM SCT080 RMK NXT FCST BY 251200Z
FIR CZWG / Amérique du Nord



MET'MAP, la Météo Aéronautique d'un coup d'oeil ! - Copyright ORBIFLY Décembre 2007 - Disclaimer

ORBIFLY MET'MAP TEAM :

Programmation & Développement : Alexandra Zaïnal
Sur une idée originale de : Baudouin d'Aumeries
Assistance à la programmation : Marc-Olivier Méhu
Soutien technique & logistique : Manuel Goepfert

Contact : metmap@orbifly.com




SOURCES & CREDITS :

   NOAA       Earth
Advisory